FW8756 Weather Reports


Display with metric or nautical units.
time (UTC)temp
F
wind
direction
speed
MPH
gust
MPH
rain 1hr
in
rain 24hr
in
rain mn
in
humidity
%
barometer
mb
20260904181624 92 260 4.0 5.0 0.00 0.00 0.00 67 1013.6
20260904181124 90 236 5.0 6.0 0.00 0.00 0.00 69 1013.7
20260904180619 91 263 9.0 11.0 0.00 0.00 0.00 70 1013.8
20260904180115 92 244 6.0 8.0 0.00 0.00 0.00 68 1014.0
20260904175613 91 168 1.0 1.0 0.00 0.00 0.00 69 1013.9
20260904175112 93 237 3.0 5.0 0.00 0.00 0.00 67 1013.9
20260904174607 94 210 3.0 6.0 0.00 0.00 0.00 65 1013.8
20260904174104 94 152 1.0 2.0 0.00 0.00 0.00 65 1013.5
20260904173603 94 161 0.0 0.0 0.00 0.00 0.00 66 1013.7
20260904173059 89 171 1.0 1.0 0.00 0.00 0.00 71 1013.5
20260904172555 91 169 1.0 1.0 0.00 0.00 0.00 70 1013.7
20260904172054 90 147 2.0 2.0 0.00 0.00 0.00 68 1013.7
20260904171549 95 210 6.0 8.0 0.00 0.00 0.00 67 1013.9
20260904171045 94 151 1.0 1.0 0.00 0.00 0.00 66 1013.8
20260904170540 91 156 0.0 0.0 0.00 0.00 0.00 70 1014.0
20260904170036 93 115 1.0 1.0 0.00 0.00 0.00 69 1013.9
20260904165535 92 163 1.0 2.0 0.00 0.00 0.00 70 1014.1
20260904165034 91 254 2.0 3.0 0.00 0.00 0.00 70 1014.3
20260904164530 89 138 1.0 2.0 0.00 0.00 0.00 72 1014.3
20260904164026 91 159 2.0 5.0 0.00 0.00 0.00 70 1014.1
20260904163525 91 168 2.0 3.0 0.00 0.00 0.00 71 1014.1
20260904163020 91 156 0.0 0.0 0.00 0.00 0.00 70 1014.0
20260904162515 91 118 3.0 3.0 0.00 0.00 0.00 71 1013.8
20260904162010 91 156 1.0 1.0 0.00 0.00 0.00 72 1013.9
20260904161505 90 154 0.0 0.0 0.00 0.00 0.00 74 1014.0
20260904161000 92 131 0.0 1.0 0.00 0.00 0.00 70 1014.0
20260904160455 89 32 0.0 1.0 0.00 0.00 0.00 74 1014.1
20260904155950 89 148 2.0 2.0 0.00 0.00 0.00 73 1014.0
20260904155445 90 168 2.0 3.0 0.00 0.00 0.00 72 1014.0
20260904154943 90 222 3.0 5.0 0.00 0.00 0.00 74 1014.0
20260904154438 87 159 2.0 3.0 0.00 0.00 0.00 77 1014.0
20260904153933 88 116 2.0 3.0 0.00 0.00 0.00 76 1013.8
20260904153428 87 162 0.0 1.0 0.00 0.00 0.00 78 1013.9
20260904152925 87 122 0.0 0.0 0.00 0.00 0.00 78 1013.8
20260904152420 88 97 0.0 1.0 0.00 0.00 0.00 77 1013.8
20260904151919 88 151 0.0 1.0 0.00 0.00 0.00 78 1014.1
20260904151414 89 159 4.0 6.0 0.00 0.00 0.00 76 1013.9
20260904150909 87 168 3.0 3.0 0.00 0.00 0.00 79 1013.9
20260904150404 88 179 3.0 3.0 0.00 0.00 0.00 78 1013.9
20260904145902 88 126 2.0 2.0 0.00 0.00 0.00 78 1013.9
20260904145358 87 131 2.0 2.0 0.00 0.00 0.00 80 1013.6
20260904144854 87 142 3.0 5.0 0.00 0.00 0.00 79 1013.7
20260904144350 87 168 2.0 2.0 0.00 0.00 0.00 79 1013.7
20260904143845 86 149 0.0 0.0 0.00 0.00 0.00 81 1013.6
20260904143342 85 163 2.0 2.0 0.00 0.00 0.00 82 1013.8
20260904142837 85 158 1.0 1.0 0.00 0.00 0.00 82 1013.8
20260904142333 85 154 1.0 1.0 0.00 0.00 0.00 83 1013.6
20260904141827 85 152 2.0 2.0 0.00 0.00 0.00 83 1013.7
20260904141323 85 145 4.0 5.0 0.00 0.00 0.00 83 1013.6
20260904140819 85 156 1.0 1.0 0.00 0.00 0.00 83 1013.8
20260904140314 85 157 3.0 3.0 0.00 0.00 0.00 82 1013.6
20260904135813 84 154 0.0 0.0 0.00 0.00 0.00 84 1013.5
20260904135308 84 154 3.0 3.0 0.00 0.00 0.00 85 1013.7
20260904134804 83 124 2.0 2.0 0.00 0.00 0.00 86 1013.6
20260904134303 82 130 3.0 3.0 0.00 0.00 0.00 87 1013.5
20260904133758 82 161 1.0 2.0 0.00 0.00 0.00 88 1013.5
20260904133249 81 140 1.0 2.0 0.00 0.00 0.00 89 1013.5
20260904132748 81 201 1.0 2.0 0.00 0.00 0.00 90 1013.6
20260904132243 81 145 0.0 0.0 0.00 0.00 0.00 91 1013.3
20260904131742 81 150 0.0 0.0 0.00 0.00 0.00 92 1013.2
20260904131239 80 149 0.0 0.0 0.00 0.00 0.00 93 1013.2
20260904130738 80 125 0.0 0.0 0.00 0.00 0.00 93 1013.1
20260904130238 79 153 0.0 0.0 0.00 0.00 0.00 93 1013.1
20260904125734 79 146 0.0 0.0 0.00 0.00 0.00 94 1013.3
20260904125230 79 146 0.0 0.0 0.00 0.00 0.00 94 1013.0
20260904124729 79 143 0.0 0.0 0.00 0.00 0.00 94 1012.9
20260904124226 78 147 0.0 0.0 0.00 0.00 0.00 94 1012.8
20260904123720 78 128 0.0 0.0 0.00 0.00 0.00 94 1013.0
20260904123216 78 128 0.0 0.0 0.00 0.00 0.00 94 1012.8
20260904122716 78 113 0.0 0.0 0.00 0.00 0.00 94 1012.7
20260904122210 78 133 0.0 0.0 0.00 0.00 0.00 94 1012.9
20260904121706 78 145 0.0 0.0 0.00 0.00 0.00 94 1012.5
20260904121201 78 146 0.0 0.0 0.00 0.00 0.00 94 1012.8
20260904120657 78 105 0.0 0.0 0.00 0.00 0.00 94 1012.7
20260904120154 78 124 0.0 0.0 0.00 0.00 0.00 94 1012.5
20260904115649 78 53 0.0 0.0 0.00 0.00 0.00 94 1012.5
20260904115143 78 57 0.0 0.0 0.00 0.00 0.00 94 1012.5
20260904114637 78 55 0.0 0.0 0.00 0.00 0.00 94 1012.6
20260904114137 78 55 0.0 0.0 0.00 0.00 0.00 93 1012.7
20260904113632 78 54 0.0 0.0 0.00 0.00 0.00 93 1012.6
20260904113131 78 55 0.0 0.0 0.00 0.00 0.00 93 1012.8
20260904112627 78 55 0.0 0.0 0.00 0.00 0.00 93 1012.7
20260904112123 78 54 0.0 0.0 0.00 0.00 0.00 93 1012.5
20260904111618 78 59 0.0 1.0 0.00 0.00 0.00 93 1012.8
20260904111114 78 54 0.0 0.0 0.00 0.00 0.00 93 1012.7
20260904110608 78 55 0.0 0.0 0.00 0.00 0.00 93 1012.5
20260904105603 78 131 0.0 0.0 0.00 0.00 0.00 93 1012.1
20260904105058 78 138 0.0 0.0 0.00 0.00 0.00 93 1012.2
20260904104553 78 142 0.0 0.0 0.00 0.00 0.00 93 1012.3
20260904104049 79 143 0.0 0.0 0.00 0.00 0.00 93 1012.3
20260904103544 79 150 0.0 0.0 0.00 0.00 0.00 93 1011.9
20260904103040 78 144 0.0 0.0 0.00 0.00 0.00 93 1012.0
20260904102536 79 144 0.0 0.0 0.00 0.00 0.00 93 1012.2
20260904102031 79 149 0.0 0.0 0.00 0.00 0.00 93 1012.1
20260904101528 79 153 0.0 0.0 0.00 0.00 0.00 93 1012.0
20260904101023 79 145 0.0 0.0 0.00 0.00 0.00 93 1012.1
20260904100519 79 137 0.0 0.0 0.00 0.00 0.00 93 1012.0
20260904100014 79 138 0.0 0.0 0.00 0.00 0.00 93 1011.7
20260904095508 79 145 0.0 0.0 0.00 0.00 0.00 93 1012.0
20260904095003 79 150 0.0 0.0 0.00 0.00 0.00 93 1011.9
20260904094458 79 151 0.0 0.0 0.00 0.00 0.00 93 1012.1
20260904093954 79 144 0.0 0.0 0.00 0.00 0.00 93 1011.8
20260904093450 79 147 0.0 0.0 0.00 0.00 0.00 93 1012.1
20260904092944 79 134 0.0 0.0 0.00 0.00 0.00 92 1011.8
20260904092441 79 143 0.0 0.0 0.00 0.00 0.00 92 1011.9
20260904091936 79 150 0.0 0.0 0.00 0.00 0.00 92 1011.7
20260904091433 79 138 0.0 0.0 0.00 0.00 0.00 92 1011.9
20260904090926 79 143 0.0 0.0 0.00 0.00 0.00 92 1011.8
20260904090423 79 129 0.0 0.0 0.00 0.00 0.00 92 1012.0
20260904085917 80 136 0.0 0.0 0.00 0.00 0.00 92 1011.7
20260904085413 80 128 0.0 0.0 0.00 0.00 0.00 92 1011.8
20260904084907 80 142 0.0 0.0 0.00 0.00 0.00 92 1011.6
20260904084404 80 138 0.0 0.0 0.00 0.00 0.00 92 1011.6
20260904083859 80 140 0.0 0.0 0.00 0.00 0.00 92 1011.5
20260904083355 80 148 0.0 0.0 0.00 0.00 0.00 92 1011.6
20260904082851 80 148 0.0 0.0 0.00 0.00 0.00 92 1011.7
20260904082345 80 137 0.0 0.0 0.00 0.00 0.00 92 1012.0
20260904081840 80 149 0.0 0.0 0.00 0.00 0.00 92 1011.7
20260904081336 80 149 0.0 0.0 0.00 0.00 0.00 92 1011.6
20260904080832 80 127 0.0 0.0 0.00 0.00 0.00 92 1011.7
20260904080327 80 135 0.0 0.0 0.00 0.00 0.00 92 1011.8
20260904075824 80 149 0.0 0.0 0.00 0.00 0.00 92 1011.8
20260904075324 80 175 0.0 0.0 0.00 0.00 0.00 92 1011.8
20260904074822 80 197 0.0 0.0 0.00 0.00 0.00 92 1011.8
20260904074317 79 169 0.0 0.0 0.00 0.00 0.00 92 1011.7
20260904073813 79 150 0.0 0.0 0.00 0.00 0.00 92 1012.0
20260904073309 79 149 0.0 0.0 0.00 0.00 0.00 92 1012.0
20260904072805 79 150 0.0 0.0 0.00 0.00 0.00 92 1012.0
20260904072306 79 149 0.0 0.0 0.00 0.00 0.00 92 1011.9
20260904071759 79 151 0.0 0.0 0.00 0.00 0.00 92 1012.0
20260904071255 79 149 0.0 0.0 0.00 0.00 0.00 92 1012.2
20260904070749 79 150 0.0 0.0 0.00 0.00 0.00 92 1012.2
20260904070248 79 159 0.0 0.0 0.00 0.00 0.00 92 1012.2
20260904065743 79 151 0.0 0.0 0.00 0.00 0.00 92 1012.3
20260904065240 79 154 0.0 0.0 0.00 0.00 0.00 92 1012.3
20260904064739 79 144 0.0 0.0 0.00 0.00 0.00 92 1012.1
20260904064235 79 145 0.0 0.0 0.00 0.00 0.00 92 1012.2
20260904063731 79 128 0.0 0.0 0.00 0.00 0.00 92 1012.3
20260904063227 79 145 0.0 0.0 0.00 0.00 0.00 92 1012.2
20260904062722 79 143 0.0 0.0 0.00 0.00 0.00 92 1012.2
20260904062218 79 145 0.0 0.0 0.00 0.00 0.00 92 1012.2
20260904061713 79 141 0.0 0.0 0.00 0.00 0.00 92 1012.0
20260904061210 79 145 0.0 0.0 0.00 0.00 0.00 92 1011.9
20260904060706 79 157 0.0 0.0 0.00 0.00 0.00 91 1012.3
20260904060202 79 156 0.0 0.0 0.00 0.00 0.00 91 1012.3
20260904055656 79 149 0.0 0.0 0.00 0.00 0.00 91 1012.2
20260904055152 79 151 0.0 0.0 0.00 0.00 0.00 91 1012.5
20260904054647 80 136 0.0 0.0 0.00 0.00 0.00 91 1012.2
20260904054143 80 133 0.0 0.0 0.00 0.00 0.00 91 1012.6
20260904053638 80 141 0.0 0.0 0.00 0.00 0.00 91 1012.2
20260904053132 79 150 0.0 0.0 0.00 0.00 0.00 91 1012.3
20260904052629 79 137 0.0 0.0 0.00 0.00 0.00 91 1012.1
20260904052125 79 135 0.0 0.0 0.00 0.00 0.00 91 1012.1
20260904051620 79 142 0.0 0.0 0.00 0.00 0.00 91 1011.8
20260904051115 79 151 0.0 0.0 0.00 0.00 0.00 91 1012.0
20260904050610 79 145 0.0 0.0 0.00 0.00 0.00 91 1012.0
20260904050107 79 141 0.0 0.0 0.00 0.00 0.00 91 1012.2
20260904045601 79 141 0.0 0.0 0.00 0.00 0.00 91 1012.0
20260904045056 79 140 0.0 0.0 0.00 0.00 0.00 91 1012.1
20260904044552 79 137 0.0 1.0 0.00 0.00 0.00 91 1012.0
20260904044048 80 138 0.0 0.0 0.00 0.00 0.00 91 1012.1
20260904043544 80 145 0.0 0.0 0.00 0.00 0.00 91 1012.0
20260904043040 80 148 0.0 0.0 0.00 0.00 0.00 91 1012.3
20260904042536 80 123 0.0 1.0 0.00 0.00 0.00 90 1012.3
20260904042031 80 149 0.0 0.0 0.00 0.00 0.00 90 1012.1
20260904041527 80 142 0.0 0.0 0.00 0.00 0.00 90 1012.1
20260904041023 80 160 0.0 0.0 0.00 0.00 0.00 90 1012.0
20260904040522 80 144 0.0 0.0 0.00 0.00 0.00 90 1012.0
20260904040020 80 145 0.0 0.0 0.00 0.00 0.00 90 1012.2
20260904035519 80 144 0.0 0.0 0.00 0.00 0.00 90 1012.2
20260904035019 80 153 0.0 0.0 0.00 0.00 0.00 90 1011.9
20260904034514 80 149 0.0 0.0 0.00 0.00 0.00 90 1011.9
20260904034009 80 159 0.0 0.0 0.00 0.00 0.00 90 1012.0
20260904033505 80 154 0.0 0.0 0.00 0.00 0.00 90 1012.0
20260904033002 80 154 1.0 1.0 0.00 0.00 0.00 90 1011.9
20260904032457 80 74 0.0 0.0 0.00 0.00 0.00 90 1012.0
20260904031956 80 78 0.0 0.0 0.00 0.00 0.00 90 1012.1
20260904031451 79 77 0.0 0.0 0.00 0.00 0.00 90 1012.0
20260904030947 79 81 0.0 0.0 0.00 0.00 0.00 90 1012.0
20260904030443 79 76 0.0 0.0 0.00 0.00 0.00 90 1011.9
20260904025937 79 83 0.0 1.0 0.00 0.00 0.00 90 1011.9
20260904025434 79 83 0.0 0.0 0.00 0.00 0.00 90 1012.0
20260904024933 79 77 0.0 0.0 0.00 0.00 0.00 90 1011.6
20260904024429 79 76 0.0 0.0 0.00 0.00 0.00 90 1011.8
20260904023925 79 74 0.0 0.0 0.00 0.00 0.00 89 1011.8
20260904023421 79 68 0.0 0.0 0.00 0.00 0.00 89 1011.7
20260904022920 79 73 0.0 0.0 0.00 0.00 0.00 89 1011.8
20260904022417 79 73 0.0 0.0 0.00 0.00 0.00 89 1011.7
20260904021913 79 74 0.0 0.0 0.00 0.00 0.00 89 1011.8
20260904021409 79 73 0.0 0.0 0.00 0.00 0.00 89 1011.4
20260904020903 79 73 0.0 0.0 0.00 0.00 0.00 89 1011.3
20260904020359 79 72 0.0 0.0 0.00 0.00 0.00 89 1011.3
20260904015857 79 73 0.0 0.0 0.00 0.00 0.00 89 1011.1
20260904015353 79 69 0.0 0.0 0.00 0.00 0.00 88 1011.2
20260904014851 79 69 0.0 0.0 0.00 0.00 0.00 88 1011.2
20260904014346 79 72 0.0 0.0 0.00 0.00 0.00 88 1011.0
20260904013842 79 69 0.0 0.0 0.00 0.00 0.00 88 1011.3
20260904013338 79 69 0.0 0.0 0.00 0.00 0.00 88 1011.0
20260904012834 79 73 0.0 0.0 0.00 0.00 0.00 88 1011.1
20260904012329 79 70 0.0 0.0 0.00 0.00 0.00 88 1010.8
20260904011828 79 68 0.0 0.0 0.00 0.00 0.00 87 1010.8
20260904011323 80 69 0.0 0.0 0.00 0.00 0.00 87 1010.9
20260904010817 80 71 0.0 0.0 0.00 0.00 0.00 87 1010.8
20260904010315 80 68 0.0 0.0 0.00 0.00 0.00 87 1010.9
20260904005809 80 72 1.0 1.0 0.00 0.00 0.00 86 1011.0
20260904005306 80 71 0.0 1.0 0.00 0.00 0.00 86 1010.9
20260904004759 80 97 0.0 0.0 0.00 0.00 0.00 86 1010.7
20260904004256 80 159 0.0 0.0 0.00 0.00 0.00 86 1011.1
20260904003750 80 159 0.0 1.0 0.00 0.00 0.00 86 1010.9
20260904003247 80 154 0.0 0.0 0.00 0.00 0.00 86 1010.8
20260904002742 80 177 0.0 0.0 0.00 0.00 0.00 86 1011.0
20260904002239 80 143 0.0 0.0 0.00 0.00 0.00 86 1010.8
20260904001737 80 179 2.0 3.0 0.00 0.00 0.00 86 1011.0
20260904001232 81 107 5.0 6.0 0.00 0.00 0.00 86 1011.1
20260904000727 81 170 0.0 0.0 0.00 0.00 0.00 86 1011.4
20260904000222 81 166 0.0 0.0 0.00 0.00 0.00 86 1011.1
20260903235721 81 127 2.0 2.0 0.00 0.00 0.00 86 1011.3
20260903235218 81 156 0.0 0.0 0.00 0.00 0.00 86 1011.2
20260903234712 81 153 0.0 0.0 0.00 0.00 0.00 86 1011.2
20260903234209 81 170 0.0 0.0 0.00 0.00 0.00 86 1011.3
20260903233704 81 55 3.0 5.0 0.00 0.00 0.00 86 1011.1
20260903233200 81 155 0.0 0.0 0.00 0.00 0.00 86 1011.2
20260903232659 81 157 0.0 0.0 0.00 0.00 0.00 86 1011.2
20260903232155 81 151 0.0 0.0 0.00 0.00 0.00 86 1011.3
20260903231654 81 167 2.0 2.0 0.00 0.00 0.00 85 1011.2
20260903231149 82 150 1.0 1.0 0.00 0.00 0.00 85 1011.1
20260903230645 82 152 0.0 0.0 0.00 0.00 0.00 85 1011.3
20260903230144 82 159 1.0 1.0 0.00 0.00 0.00 85 1011.1
20260903225641 81 86 3.0 3.0 0.00 0.00 0.00 85 1011.0
20260903225137 82 75 3.0 6.0 0.00 0.00 0.00 85 1011.2
20260903224633 82 137 0.0 0.0 0.00 0.00 0.00 86 1011.3
20260903224129 81 64 3.0 6.0 0.00 0.00 0.00 85 1011.3
20260903223624 82 145 1.0 2.0 0.00 0.00 0.00 86 1011.4
20260903223122 82 146 0.0 0.0 0.00 0.00 0.00 86 1011.6
20260903222617 82 139 0.0 1.0 0.00 0.00 0.00 86 1011.4
20260903222116 81 133 1.0 2.0 0.00 0.00 0.00 86 1011.6
20260903221612 82 111 2.0 3.0 0.00 0.00 0.00 86 1011.7
20260903221109 81 176 0.0 0.0 0.00 0.00 0.00 86 1011.6
20260903220608 81 152 0.0 0.0 0.00 0.00 0.00 87 1011.7
20260903215602 80 160 0.0 0.0 0.00 0.00 0.00 88 1011.7
20260903215056 80 129 0.0 0.0 0.00 0.00 0.00 88 1011.7
20260903214556 80 123 0.0 0.0 0.00 0.00 0.00 88 1011.9
20260903214051 80 75 0.0 0.0 0.00 0.00 0.00 89 1012.0
20260903213546 80 149 0.0 0.0 0.00 0.00 0.00 90 1012.2
20260903213042 80 149 0.0 0.0 0.00 0.00 0.00 90 1012.1
20260903212538 79 124 0.0 0.0 0.00 0.00 0.00 90 1012.3
20260903212033 79 100 1.0 3.0 0.00 0.00 0.00 90 1012.1
20260903211528 79 123 1.0 2.0 0.00 0.00 0.00 91 1012.1
20260903211024 79 76 0.0 0.0 0.00 0.00 0.00 91 1012.6
20260903210524 79 128 2.0 3.0 0.00 0.00 0.00 91 1012.7
20260903210021 79 101 1.0 2.0 0.00 0.00 0.00 91 1012.7
20260903205514 79 117 4.0 5.0 0.00 0.00 0.00 91 1012.8
20260903205009 79 176 0.0 0.0 0.00 0.00 0.00 91 1012.8
20260903204504 78 119 1.0 2.0 0.00 0.00 0.00 90 1012.8
20260903204000 78 82 2.0 5.0 0.00 0.00 0.00 90 1013.0
20260903203455 78 118 0.0 0.0 0.00 0.00 0.00 90 1013.0
20260903202954 78 149 0.0 0.0 0.00 0.00 0.00 90 1013.3
20260903202451 78 156 0.0 0.0 0.00 0.00 0.00 90 1013.1
20260903201945 78 154 0.0 0.0 0.00 0.00 0.00 90 1013.1
20260903201440 78 149 0.0 0.0 0.00 0.00 0.00 90 1012.9
20260903200939 78 156 0.0 0.0 0.00 0.00 0.00 90 1013.1
20260903200434 78 139 0.0 0.0 0.00 0.00 0.00 90 1013.1
20260903195929 78 136 0.0 0.0 0.00 0.00 0.00 89 1013.0
20260903195426 78 137 0.0 0.0 0.00 0.00 0.00 89 1012.9
20260903194920 78 161 0.0 0.0 0.00 0.00 0.00 89 1012.9
20260903194416 78 152 0.0 0.0 0.00 0.00 0.00 88 1013.2
20260903193911 78 166 0.0 0.0 0.00 0.00 0.00 88 1012.9
20260903193408 79 159 1.0 1.0 0.00 0.00 0.00 87 1013.2
20260903192902 79 164 0.0 0.0 0.00 0.00 0.00 86 1012.9
20260903192358 79 163 1.0 1.0 0.00 0.00 0.00 86 1013.0
20260903191854 79 169 0.0 0.0 0.00 0.00 0.00 84 1013.2
20260903191350 79 134 0.0 0.0 0.00 0.00 0.00 84 1013.2
20260903190849 80 168 1.0 1.0 0.00 0.00 0.00 83 1013.3
20260903190344 80 97 0.0 0.0 0.00 0.00 0.00 83 1013.2
20260903185843 80 90 1.0 2.0 0.00 0.00 0.00 82 1013.4
20260903185338 80 179 2.0 2.0 0.00 0.00 0.00 81 1013.5
20260903184835 81 132 0.0 0.0 0.00 0.00 0.00 81 1013.8
20260903184331 80 143 1.0 1.0 0.00 0.00 0.00 81 1013.8
20260903183826 81 124 0.0 1.0 0.00 0.00 0.00 82 1013.9
20260903183321 81 150 2.0 2.0 0.00 0.00 0.00 83 1013.8
20260903182819 82 73 3.0 5.0 0.00 0.00 0.00 85 1013.8
20260903182314 83 152 0.0 1.0 0.00 0.00 0.00 85 1013.8